Regional Weather Roundup
Issued by NWS

Home | Current Version | Previous Version | Graphics & Text | Print | Product List | Glossary On
Versions: 1 2 3 4 5 6 7 8 9 10 11 12 13 14 15 16 17 18 19 20 21 22 23 24 25 26 27 28 29 30 31 32 33 34 35 36 37 38 39 40 41 42 43 44 45 46 47 48 49 50
000
ASUS43 KDMX 030808
RWRIA

WEATHER ROUNDUP FOR IOWA
NATIONAL WEATHER SERVICE DES MOINES IA
300 AM CDT TUE MAY 03 2016

NOTE: "FAIR" INDICATES FEW OR NO CLOUDS BELOW 12,000 FEET WITH NO
SIGNIFICANT WEATHER AND/OR OBSTRUCTIONS TO VISIBILITY.

* - THESE STATIONS ARE NOT NWS STATIONS...THUS NOT UNDER NWS
QUALITY CONTROL.  THEY ALSO DO NOT REPORT WEATHER SUCH
AS PRECIPITATION OR FOG.

IAZ001>003-012>014-020>022-031>034-043>046-030900-
   NORTHWEST IOWA

CITY           SKY/WX    TMP DP  RH WIND       PRES   REMARKS
CARROLL *      CLEAR     45  39  81 CALM      30.03F
CHEROKEE *     CLEAR     39  39 100 CALM      30.03S
DENISON *      CLEAR     39  39 100 CALM      30.02S
LE MARS *      CLEAR     41  39  93 CALM      30.03F FOG
ORANGE CITY *  CLEAR     46  39  76 CALM      30.02F
SHELDON *      CLEAR     41  41 100 SW3       30.01S
SIOUX CITY     CLEAR     47  40  76 CALM      30.03F
SPENCER        CLEAR     41  38  89 SW3       30.02F
STORM LAKE *   CLEAR     48  36  61 SW6       30.03F
$$

IAZ055>058-069>071-079>083-090>094-030900-
   SOUTHWEST IOWA

CITY           SKY/WX    TMP DP  RH WIND       PRES   REMARKS
ATLANTIC *     CLEAR     41  41 100 N3        30.05F
AUDUBON *      CLEAR     37  36  93 CALM      30.05F
CLARINDA *       N/A    N/A N/A N/A MISG        N/A
COUNCIL BLFS * CLEAR     50  41  71 SW7       30.04F
CRESTON *      CLEAR     46  41  81 SW6       30.06S
HARLAN  *      CLEAR     41  41 100 CALM      30.08S
LAMONI         CLEAR     45  42  89 W3        30.05S
SHENANDOAH *   MOCLDY    45  45 100 CALM      30.06S
$$

IAZ047>049-059>061-072>074-084-030900-
   CENTRAL IOWA

CITY           SKY/WX    TMP DP  RH WIND       PRES   REMARKS
AMES           CLEAR     42  40  92 CALM      30.03F
ANKENY *       CLEAR     39  39 100 CALM      30.03F FOG
BOONE *        CLEAR     46  43  87 W8        30.02F
CHARITON *     CLEAR     41  41 100 S3        30.04F
DES MOINES     CLEAR     47  41  80 CALM      30.04F
GRINNELL*      CLEAR     43  41  93 SW6       30.04S
KNOXVILLE *    CLEAR     45  41  87 SW6       30.03S
MARSHALLTOWN   CLEAR     44  40  85 W5        30.02F
NEWTON *       CLEAR     46  46 100 W6        30.03F
PELLA *        CLEAR     43  41  93 CALM      30.05F
$$

IAZ004>006-015-016-023>025-035-036-030900-
   NORTH CENTRAL IOWA

CITY           SKY/WX    TMP DP  RH WIND       PRES   REMARKS
ALGONA *       CLEAR     46  43  87 SW8       30.02S
CLARION *      CLEAR     43  41  93 S6        30.03R
ESTHERVILLE    CLEAR     43  38  82 W7        30.01S
FORT DODGE *   CLEAR     43  37  81 CALM      30.03F
MASON CITY     CLEAR     47  40  76 W8        30.02F
FOREST CITY *  CLEAR     36  36 100 CALM      30.01F FOG
WEBSTER CITY * CLEAR     45  43  93 SW10      30.01F
IOWA FALLS *     N/A     45  41  87 SW7       30.04S
$$

IAZ007>011-017>019-026>030-037>042-050>054-066-030900-
   NORTHEAST IOWA

CITY           SKY/WX    TMP DP  RH WIND       PRES   REMARKS
CEDAR RAPIDS   PTCLDY    42  40  92 W9        30.01F
CHARLES CITY * CLEAR     46  41  81 W7        30.01F
CLINTON *      CLEAR     43  41  93 W5        30.01S
DECORAH *      PTCLDY    46  39  76 CALM      29.99S
DUBUQUE        CLEAR     43  38  82 CALM      30.00S
MONTICELLO *   CLEAR     39  39 100 CALM      30.01S FOG
OELWEIN *      CLEAR     43  41  93 W6        30.02S
WATERLOO       CLEAR     41  38  89 CALM      30.01F
$$

IAZ064-065-067-068-078-030900-
   EAST CENTRAL IOWA

CITY           SKY/WX    TMP DP  RH WIND       PRES   REMARKS
DAVENPORT      CLEAR     43  40  89 W6        30.01F
IOWA CITY      PTCLDY    41  39  93 CALM      30.03F
MT. PLEASANT * CLOUDY    50  46  87 W3        30.03S
MUSCATINE *    CLOUDY    48  43  81 NW5       30.03S
QUAD CITIES    CLEAR     41  39  93 CALM      30.00F
$$

IAZ062-063-075>077-085>089-095>099-030900-
   SOUTHEAST IOWA

CITY           SKY/WX    TMP DP  RH WIND       PRES   REMARKS
BURLINGTON     CLOUDY    50  46  86 NW6       30.02S
FAIRFIELD *    MOCLDY    46  43  87 W6        30.03F
FORT MADISON * CLOUDY    48  46  93 CALM      30.03F
KEOKUK *       CLOUDY    50  46  87 CALM      30.02F
OSKALOOSA *      N/A     41  39  93 W7        30.04F
OTTUMWA        PTCLDY    40  40 100 W5        30.03F FOG
WASHINGTON *   CLEAR     45  45 100 W6        30.04S
$$

ABBREVIATIONS USED IN REMARKS
   TC - TEMPERATURES IN CELSIUS
  WCI - WIND CHILL INDEX
   HX - HEAT INDEX
  VSB - VISIBILITY
$$





USA.gov is the U.S. government's official web portal to all federal, state and local government web resources and services.